STARLINK-34702

Last updated on Tue Aug 26 2025 00:02:05 GMT+0000 (Coordinated Universal Time)

1 64908U 25157E 25237.18883296 .00057523 00000+0 10346-2 0 9998 2 64908 53.1606 189.4007 0001296 74.5004 285.6149 15.49313100 5880
UTC large
Height (km)
Speed (km/s)
/
Latitude / Longitude
Inclination (degrees)
Orbital Period (minutes)
Azimuth
Elevation
Range (km)
Doppler Factor

Next 0 passes for location: London (51.5072 / 0.1276)

Sorry there are no passes over London.
STARLINK-34702